Location: Gerlach
(40.6516°N, 119.3568°W)
Time: 14:58:07
(UTC-07:00)

A-11 Canister half - Pass Details

Date: 29 February 2024
Orbit: 1525 x 1683 km, 47.3° (Epoch: 21 April)

Event Time Altitude Azimuth Distance (km) Brightness Sun altitude
Rises 22:52:24 0° 284° (WNW) 4,738 12.0 -52.5°
Reaches altitude 10° 22:55:35 10° 288° (WNW) 3,737 11.3 -52.8°
Enters shadow 22:58:31 23° 295° (WNW) 2,857 10.6 -53.1°
